Location: Beuvrequen
(50.8014°N, 1.6652°E)
Time: 11:48:37
(UTC+00:00)

Cosmos 1844 - Pass Details

Date: 03 June 2022
Orbit: 821 x 869 km, 70.9° (Epoch: 03 July)

Event Time Altitude Azimuth Distance (km) Brightness Sun altitude
Rises 20:47:47 0° 329° (NNW) 3,466 9.0 -6.4°
Reaches altitude 10° 20:50:15 10° 330° (NNW) 2,526 7.8 -6.6°
Maximum altitude 20:56:06 90° 324° (NW) 875 3.8 -7.2°
Drops below altitude 10° 21:01:53 10° 152° (SSE) 2,500 5.5 -7.8°
Enters shadow 21:02:07 - 152° (SSE) 2,589 5.6 -7.8°
